Showing default

YUNHAI 2-2C, 59282

Orbit data source: Space-Track

YUNHAI 2-2C, 59282 is a payload satellite owned by CASC (CN) in LEO that was launched on Thu, 21 Mar 2024 UTC via a CHANG ZHENG 2D/YZ-3 launch vehicle from the Jiuquan Satellite Launch Center, China (JSC). Payload-class satellites include a variety of spacecraft equipped with specific instruments for various scientific and technological missions. These include communications satellites like Starlink; space stations such as the ISS; scientific satellites like the Hubble; Earth observation satellites from companies like Planet Labs, Umbra, and HawkEye 360; GPS; miniature CubeSats for education and research; and military/defense satellites.

Loading next visibility...
Identifier
59282, 2024-052C
Orbit
LEO
Country
Flag of CNCN / PRC
Related business
Manufacturer
DFH Shenzhen
Mission
Operational Defense Meteo Radio Occ.
Bus & Motor
YH-2, Unknown motor
Mass
~100 kg wet, ~100 kg dry
Launch date (UTC)
2024-03-21 (2 years ago)
Launch vehicle
CHANG ZHENG 2D/YZ-3
Launch site
Jiuquan Satellite Launch Center, China (JSC)
Object type
Payload
Rocket body
Debris
Shape & HBR
Box + 2 Pan, 0.5 m
Radar Cross Section
0.166 m², Large (>1 m²)

Expand to show TLE details & history
Last TLE update: 1 day ago

TLE from 1 day ago
0 YUNHAI 2-2C
1 59282U 24052C   26172.39466365  .00000054  00000-0  86229-4 0  9999
2 59282  50.0090 124.5987 0006218 178.5368 181.5566 14.27964747115407
Epoch: 2026-06-21T09:28Z
TLE epoch observation values (Epoch: 2026-06-21T09:28:18.939Z)
Latitude
-0.00001°
Longitude
72.92422°
Altitude
803.534 km
Speed
7.451 km/s
True Right ascension
08h 18m 23s
True Declination
0° 00' 00"
Sunlit
Object was in daylight at epoch
Visualization orbit readout
Latitude
Unknown
Longitude
Unknown
Altitude
Unknown
Speed
Unknown
Apparent Right ascension
Unknown
Apparent Declination
Unknown
Sunlit
N/A
Visualization observer readout
Local Sidereal Time
21:24:05
Azimuth
Unknown
Elevation
Unknown
Doppler factor
Unknown
Orbital elements
Apogee altitude
803.743 km
Perigee altitude
794.817 km
Semi-major axis
7,177.417 km
Eccentricity
0.00062
Inclination
50.009°
RAAN
124.5987°
Arg. of periapsis
178.5368°
True anomaly
181.55467°
Mean anomaly
181.5566°
Eccentric anomaly
181.55563°
Mean motion
3.56936 °/min
Orbital period
100.86 mins
BSTAR
0.000086229
Loading maneuver chart data...
Computing Atmospheric mass density...
Loading historical data...
Loading historical data...
Loading historical data...
Loading historical data...
Loading historical data...
Loading historical data...
Loading historical data...

Documentation

Showing up to 5 results
|